RH
82 83 80 78 75 65 58 58 57 53 48 45 41 37 33 29 26 23 21 19 18 18 17 16 16 16 16 17 18 18 19 19 19 18 19 20 21 20 20 21 22 28 35 38 35 32 30 30 29 28 27 27 26 26 25 23 23 24 25 26 27 28 28 28 27 23 18 15 17 19 21 22 22 23 22 21 20 20 19 18 18 21 25 28 29
81 79 78 78 72 57 51 50 47 45 43 41 37 34 31 27 25 21 20 19 18 17 17 16 16 16 16 17 18 18 19 19 20 20 22 23 23 22 20 20 21 26 33 35 34 32 30 30 29 28 26 26 26 25 25 24 24 25 25 26 27 29 29 29 28 22 17 18 20 20 22 23 22 22 22 20 19 19 19 19 19 22 26 29 30
79 76 76 74 64 53 46 43 41 41 40 37 34 31 29 25 22 20 19 18 17 16 16 16 16 17 17 17 18 18 19 20 21 22 25 27 26 24 22 21 22 27 32 32 31 30 30 30 30 29 28 27 26 25 25 25 25 26 26 26 27 27 27 28 27 22 19 20 21 20 22 22 22 21 20 20 19 20 19 20 20 23 27 30 36
76 73 73 69 58 49 43 40 38 37 35 33 30 28 25 22 20 18 18 17 17 16 17 17 17 18 17 17 17 18 18 19 21 25 28 30 30 28 25 22 21 24 26 25 26 28 29 29 30 30 30 28 27 26 25 25 24 24 24 23 23 24 24 26 26 22 19 19 21 21 21 21 21 21 20 20 19 20 20 21 22 25 29 36 45
68 68 70 64 54 47 43 39 34 32 29 27 26 24 22 19 18 17 17 17 17 17 18 18 18 17 16 16 16 17 18 19 21 25 29 31 32 30 27 24 22 22 21 21 23 25 27 27 28 29 30 30 30 29 27 26 24 23 22 20 18 18 20 23 23 19 18 22 25 24 21 21 21 20 20 19 20 20 21 23 25 28 35 44 52
59 62 65 59 53 49 43 37 30 25 22 22 22 20 18 16 16 17 18 19 19 18 18 19 18 16 16 15 16 17 18 19 21 24 28 31 32 32 29 27 25 24 24 23 23 23 24 24 25 26 27 29 31 33 32 29 26 24 22 19 16 15 16 19 20 16 17 25 30 27 24 23 21 21 20 20 21 21 23 26 30 35 44 51 53
55 55 56 52 50 46 39 31 23 19 18 19 18 16 15 16 18 20 21 21 21 20 19 18 17 16 15 15 15 17 18 18 20 23 27 32 33 33 31 30 29 29 29 28 28 27 27 26 27 27 27 27 28 32 34 33 31 28 24 19 17 14 14 17 19 15 19 33 37 32 26 22 22 21 21 21 22 24 28 33 37 43 49 50 48
51 48 47 43 41 39 31 21 16 15 17 16 15 15 15 18 21 23 23 23 22 20 19 17 16 15 14 14 15 16 17 18 20 23 28 32 33 34 34 34 33 33 33 33 33 33 34 35 35 35 34 32 30 30 32 33 33 33 28 23 18 14 13 14 16 15 23 41 44 35 26 22 23 21 21 23 25 28 32 37 42 47 48 45 43
45 40 40 34 30 31 25 16 13 14 15 15 15 15 18 22 25 26 26 24 21 19 17 16 15 14 13 13 15 17 17 20 21 25 29 32 33 34 36 36 35 34 33 33 33 32 33 35 36 37 36 36 35 34 34 34 34 35 33 28 20 15 13 13 14 19 32 42 42 35 27 24 23 21 22 23 26 30 33 38 43 47 47 44 42
38 34 33 27 22 21 19 13 12 14 15 15 16 18 22 26 28 28 27 24 20 17 15 13 13 11 12 13 15 16 18 22 24 27 31 33 33 33 34 34 34 34 34 33 33 32 32 33 34 37 41 40 37 36 38 39 38 37 36 31 26 19 15 14 13 21 36 41 40 35 27 25 23 21 22 23 25 27 30 33 36 41 43 42 41
35 30 27 24 18 14 13 12 13 15 16 17 19 22 26 29 30 30 28 24 19 14 12 11 10 9 11 13 15 17 19 22 26 31 36 36 35 34 35 36 39 39 38 36 36 37 37 37 38 43 47 45 40 39 41 42 42 41 39 35 31 24 19 18 17 27 38 39 39 35 29 28 24 22 21 23 24 25 27 27 28 31 33 34 34
34 26 22 19 14 12 13 13 16 17 18 19 21 25 29 31 32 33 30 24 18 12 10 10 9 10 11 13 15 17 18 22 29 38 42 41 38 37 40 43 46 45 42 40 40 39 39 39 40 44 47 46 43 41 42 43 42 42 41 38 34 29 24 22 23 35 40 38 39 36 33 29 25 24 23 23 23 24 24 23 25 25 26 27 27
32 25 18 13 12 13 15 16 18 19 19 21 23 28 30 32 34 35 33 26 19 13 11 11 10 12 13 14 16 17 19 25 35 43 45 41 39 41 44 46 46 45 45 45 44 42 40 40 40 44 47 50 48 45 44 43 43 42 42 40 37 34 31 25 22 28 33 37 38 35 36 32 27 24 23 24 22 23 23 22 24 24 23 24 25
27 25 16 11 13 15 17 19 20 21 21 22 26 29 31 33 36 37 36 30 22 18 17 16 15 16 16 17 17 19 22 29 39 44 42 39 40 42 42 42 42 42 43 43 43 41 40 40 41 44 47 50 50 48 47 46 47 48 48 46 45 43 44 39 28 24 28 36 34 32 36 36 30 23 22 23 21 22 23 21 22 23 23 24 24
29 24 17 12 15 17 19 21 21 23 22 24 26 29 31 33 37 39 39 34 28 26 25 24 24 23 23 23 23 26 30 37 41 40 36 35 36 36 36 36 34 33 33 33 34 35 35 37 38 40 42 41 40 41 43 45 46 49 51 53 54 55 58 55 46 34 29 36 36 29 26 25 24 22 22 20 20 22 22 21 21 22 22 22 23
30 24 18 13 15 19 20 22 22 23 24 24 27 28 30 34 37 38 39 38 36 34 34 35 35 35 34 33 34 35 37 37 35 31 28 29 29 29 29 28 24 22 23 23 23 24 26 27 28 28 28 25 23 24 26 28 30 32 36 41 48 55 62 65 64 52 37 37 42 34 22 17 16 16 19 20 18 19 20 21 20 22 22 22 22
28 25 20 16 16 19 20 21 23 24 25 23 26 27 29 34 34 35 37 38 36 37 38 39 40 40 39 37 35 32 30 27 24 23 23 23 23 22 21 19 16 15 18 19 17 15 15 15 15 15 14 12 11 11 11 13 13 14 16 20 26 36 46 58 67 64 50 42 42 38 32 29 24 17 15 16 17 18 18 18 20 20 21 21 21
30 30 20 19 17 19 19 19 23 23 24 23 24 26 28 32 31 32 35 35 34 34 36 37 37 34 30 27 23 21 20 20 21 22 21 19 17 14 14 12 11 12 16 18 15 12 10 10 9 9 9 9 8 8 8 8 9 10 13 13 14 21 27 38 52 61 63 55 45 40 38 37 38 34 25 18 14 15 17 17 18 19 19 19 19
31 29 17 21 19 18 18 17 23 23 23 22 22 25 28 30 28 29 32 32 31 30 31 30 26 22 20 20 20 20 21 22 21 19 17 14 11 9 9 9 8 10 12 12 11 10 9 9 9 10 9 9 9 8 9 8 10 11 12 12 13 18 19 26 36 47 62 65 57 52 48 44 44 45 43 33 21 14 14 15 16 17 17 18 18
28 24 15 22 18 16 17 18 22 22 21 20 21 25 27 28 26 26 27 27 26 24 23 19 16 16 18 19 20 20 19 18 15 13 11 9 8 8 8 8 8 8 8 9 8 9 9 10 12 15 15 14 11 9 9 9 11 11 10 11 12 15 15 20 27 32 43 51 52 55 56 57 54 50 50 48 38 25 16 13 13 14 14 15 15
24 23 19 20 17 16 16 19 22 20 20 19 22 24 26 26 23 23 21 20 18 15 12 11 11 12 14 13 13 13 12 10 8 7 6 6 6 7 8 7 8 7 8 7 7 8 8 11 13 17 21 20 18 13 9 9 11 12 11 11 11 18 20 15 18 21 25 30 35 44 52 59 62 60 57 55 51 42 30 21 15 13 13 12 13
19 20 22 19 15 16 16 20 21 17 17 19 22 23 24 22 19 18 16 14 11 8 7 8 9 10 16 18 12 9 9 8 7 6 5 6 6 6 7 7 7 7 8 8 8 8 8 14 15 19 23 19 20 16 10 11 11 13 13 10 9 16 21 13 10 12 14 21 27 36 45 51 57 62 62 60 57 52 43 33 23 18 16 15 15
17 14 20 21 15 14 18 20 18 14 14 16 20 21 19 16 15 13 10 10 6 5 6 7 10 13 23 33 28 20 15 12 9 7 5 6 6 6 7 7 8 8 8 9 9 8 11 16 14 19 21 12 14 14 10 12 11 12 11 9 8 10 14 12 10 9 9 14 22 30 39 47 53 58 60 60 58 55 50 40 29 22 20 19 18
16 14 16 19 15 15 19 21 16 12 10 11 14 16 15 12 10 8 7 7 5 5 6 8 12 13 19 30 32 26 16 10 8 9 9 10 11 10 10 10 15 19 17 15 15 16 19 18 12 14 15 12 14 11 8 10 9 10 9 8 8 8 9 10 11 12 10 10 16 22 29 40 49 54 58 57 56 57 57 51 39 29 25 23 22
15 13 11 16 17 17 20 21 15 9 7 5 6 10 11 9 7 6 6 5 5 5 6 6 8 11 13 16 20 22 19 17 17 16 18 21 23 21 19 18 22 30 24 16 16 18 21 16 9 12 16 19 17 10 7 7 9 9 8 8 8 8 9 9 10 12 11 8 11 14 19 30 39 45 51 53 54 54 57 59 55 47 41 37 34
16 14 10 18 20 18 21 19 13 7 6 4 3 6 8 7 5 5 5 4 5 5 6 8 7 9 11 10 17 30 34 31 29 31 31 28 30 33 34 29 24 28 25 21 22 22 28 22 10 12 19 22 17 14 14 7 7 8 7 9 8 9 9 9 10 10 9 8 9 9 12 20 28 33 37 44 50 52 54 57 61 60 57 52 47
17 19 13 18 21 21 24 18 11 7 6 5 3 5 6 5 5 5 5 5 6 5 8 11 9 8 8 9 15 28 33 27 29 39 38 30 33 39 36 29 23 25 29 30 30 30 41 35 16 15 19 19 15 16 18 9 7 8 7 9 8 9 9 10 11 9 9 9 8 8 8 12 20 24 26 32 39 45 48 50 54 56 57 55 53
14 20 16 19 21 22 26 17 10 7 6 6 4 5 5 5 5 6 6 5 6 6 7 9 10 9 8 9 9 17 22 18 25 41 39 28 31 35 27 25 22 26 30 26 29 40 51 40 22 26 25 16 14 12 12 8 6 8 7 8 8 8 9 10 10 10 9 9 9 8 8 9 12 15 20 24 28 32 34 35 38 41 44 46 45
11 19 19 20 21 23 27 16 9 8 7 6 4 5 5 5 6 7 6 5 6 7 7 8 9 10 9 9 8 10 15 14 25 44 41 28 29 30 24 26 24 25 28 22 34 52 53 38 27 31 24 13 13 10 9 8 6 8 7 7 8 8 9 9 9 10 10 10 10 9 8 9 10 11 14 18 21 23 23 21 21 24 29 32 32
11 16 18 20 21 24 28 16 8 8 7 7 4 4 6 6 7 7 7 6 6 7 8 8 8 9 8 8 9 8 10 16 29 39 30 23 31 31 27 28 24 24 28 27 39 46 38 31 29 26 18 13 14 11 11 10 6 7 7 7 7 7 8 9 9 9 9 10 10 10 10 9 9 9 10 11 13 14 13 12 11 12 16 19 21
12 13 15 19 19 21 26 15 8 8 7 7 5 4 6 7 8 8 9 7 7 7 6 8 7 7 6 7 9 7 11 20 29 29 20 20 27 27 27 29 26 26 29 31 38 41 33 28 27 22 16 16 16 14 14 11 8 8 7 7 7 7 7 8 9 9 9 10 10 12 11 10 9 8 8 8 8 8 7 8 8 9 10 11 12
13 12 13 18 17 16 21 15 8 8 6 8 6 5 6 8 10 10 11 9 7 7 5 6 6 6 7 7 8 7 12 18 18 19 18 19 20 20 24 27 26 26 25 28 32 35 32 25 22 19 18 18 18 17 17 15 13 11 10 8 7 7 7 7 8 9 9 9 9 11 12 11 10 8 8 8 7 7 6 6 7 7 10 15 21
14 13 12 15 15 14 18 14 8 7 6 8 8 8 8 9 11 11 11 8 6 5 4 5 6 6 7 7 7 6 9 11 9 13 14 17 20 19 20 23 24 24 26 29 30 30 27 23 22 20 19 19 20 20 20 20 20 18 16 14 10 7 6 7 7 8 9 9 9 9 10 11 13 11 9 8 8 7 7 7 6 7 9 18 30
15 14 12 14 14 14 17 13 7 7 6 8 9 9 10 9 10 10 8 6 5 4 4 4 5 6 7 6 7 6 7 7 7 10 13 17 24 20 19 25 25 26 31 32 31 31 29 26 26 24 23 23 22 23 24 25 26 25 23 19 16 12 8 6 6 7 8 9 10 9 8 10 14 15 13 10 8 8 8 8 7 8 11 17 26
18 14 12 14 13 13 15 11 6 6 6 7 8 8 8 8 8 7 6 5 5 5 5 4 4 5 6 5 6 6 6 8 8 9 12 18 29 29 22 24 27 28 33 35 35 37 35 34 35 33 31 30 27 26 28 31 35 39 37 29 22 17 13 9 6 6 7 8 9 9 9 9 11 13 15 13 10 8 9 9 9 9 12 16 20
19 14 12 14 13 13 12 8 5 5 5 6 7 7 7 6 6 6 5 5 5 6 6 6 5 5 6 6 6 6 6 7 8 9 11 14 26 32 25 23 28 31 34 35 37 39 39 40 42 44 41 38 36 33 33 37 43 50 52 48 37 25 18 14 9 6 6 7 8 8 8 8 9 10 13 14 11 10 10 9 11 11 11 13 14
18 13 13 14 13 13 10 6 5 4 4 5 5 6 6 6 7 7 6 6 6 7 7 7 7 6 6 6 6 6 6 7 8 9 11 13 20 28 28 28 30 32 36 38 37 36 40 45 47 49 49 47 45 42 41 43 48 52 54 58 54 40 26 20 15 9 7 5 8 11 9 8 10 9 11 12 10 11 11 10 11 11 10 10 11
16 12 13 14 12 11 8 4 4 4 4 5 5 5 6 6 7 8 7 7 7 7 8 8 8 7 6 6 6 6 6 7 9 10 11 12 16 21 25 28 31 34 39 39 36 32 35 45 52 52 51 51 50 48 49 50 52 52 51 53 56 50 39 30 21 14 11 6 7 12 11 8 9 8 9 10 9 10 11 10 10 11 10 10 10
14 12 12 13 12 10 6 3 4 4 4 5 5 5 6 7 7 8 8 8 8 8 8 9 9 8 7 6 6 6 6 7 9 10 11 11 15 22 25 27 32 38 40 35 30 32 38 46 51 53 51 48 48 48 51 53 52 50 47 48 51 50 47 42 33 23 17 10 8 9 7 7 8 8 8 9 9 9 9 10 9 10 10 9 9
13 11 12 13 12 10 6 4 3 4 4 4 4 5 6 7 7 8 9 8 7 7 7 8 9 8 7 7 6 6 7 8 9 10 11 12 14 21 26 28 33 40 40 31 23 28 43 49 44 44 43 36 37 41 45 50 50 47 44 45 48 48 47 46 43 36 27 17 10 8 7 6 6 7 8 8 8 9 9 9 9 9 9 9 9
12 11 12 13 12 10 6 4 3 3 3 3 3 4 4 6 7 7 8 8 7 7 7 8 9 8 7 7 7 7 7 8 10 10 10 12 13 17 23 29 35 41 39 29 22 25 39 46 36 30 28 24 24 29 35 42 45 47 46 46 47 47 47 45 43 41 34 24 16 10 8 7 7 6 7 7 7 8 8 8 8 8 8 8 9
11 11 12 12 11 9 6 4 3 3 3 3 2 3 4 5 6 6 8 8 7 6 7 7 8 8 7 7 7 7 8 8 9 9 9 12 15 16 21 27 34 42 39 25 20 26 34 36 26 19 18 16 16 18 21 25 30 35 37 38 38 37 36 34 34 36 34 30 25 17 12 10 9 8 7 8 7 7 7 7 7 7 7 8 8
11 11 11 12 11 8 6 4 3 3 3 3 2 2 3 4 5 6 7 8 8 7 7 7 7 7 7 7 7 7 7 9 9 9 9 10 13 14 19 27 34 40 38 22 16 25 33 29 20 15 14 13 14 13 13 14 15 17 18 18 18 18 17 16 16 21 26 30 31 29 24 20 18 15 12 11 9 8 7 7 7 7 7 8 8
10 11 12 11 11 9 7 4 3 4 3 3 2 2 3 3 4 5 7 8 8 8 7 7 6 7 7 6 7 7 7 8 8 8 8 9 11 12 15 22 29 34 32 20 13 22 29 25 17 13 13 12 13 13 12 12 11 11 12 10 9 9 9 8 8 9 13 19 26 31 33 32 31 27 22 16 12 10 8 7 7 7 8 8 8
9 11 13 11 11 10 8 6 4 4 4 3 3 3 3 3 4 4 6 8 8 8 7 7 6 5 6 6 6 7 7 8 8 7 8 9 10 11 12 16 22 30 30 19 11 16 23 21 17 13 13 13 13 14 13 12 12 13 13 13 12 11 9 8 8 7 8 10 13 18 22 25 28 28 25 20 15 11 9 8 8 8 9 9 11
10 10 13 11 11 10 9 7 5 5 4 4 3 3 3 3 4 4 5 7 8 7 6 6 6 5 6 6 6 7 7 7 7 7 8 8 9 10 10 12 16 26 30 20 9 12 17 17 17 14 13 14 14 14 14 13 13 13 14 14 15 15 12 11 10 8 7 7 7 8 9 11 13 16 17 16 14 11 10 10 10 11 11 12 13
10 10 12 12 11 9 10 8 6 5 4 4 4 4 4 3 3 4 5 6 6 6 6 6 6 5 5 6 6 6 7 7 7 8 7 8 9 9 10 10 11 20 28 24 12 8 12 14 14 14 14 15 15 14 14 13 13 12 13 13 13 14 14 13 12 10 9 9 9 8 7 7 7 8 9 9 9 9 10 11 11 12 12 12 12
10 10 10 12 12 9 9 8 6 5 4 4 4 4 4 4 3 4 4 5 5 5 5 6 6 6 5 6 6 6 6 7 7 7 8 8 8 9 12 11 10 13 20 25 18 9 10 11 12 13 14 15 14 14 15 15 15 15 14 14 13 12 12 12 11 11 11 11 12 11 10 8 7 7 7 7 7 8 9 10 11 12 12 13 13
9 10 10 11 13 12 10 8 6 5 4 4 4 4 4 4 3 4 4 4 5 5 5 5 6 6 5 5 5 6 6 6 7 7 8 8 8 8 12 13 12 11 12 20 22 14 9 11 11 11 12 14 14 16 18 19 20 20 19 18 17 16 15 15 13 12 12 12 12 12 11 11 10 9 9 9 9 10 11 12 12 13 14 14 15
8 9 10 10 13 13 11 9 7 5 4 4 4 4 4 4 3 3 4 4 4 5 5 5 5 5 5 5 5 5 6 6 7 7 8 8 8 8 10 14 16 15 11 13 18 17 12 10 11 11 11 13 15 18 21 23 24 24 23 23 24 25 25 25 21 18 17 17 16 15 13 12 12 11 11 11 12 13 13 14 15 16 16 16 16
7 7 9 10 12 13 12 10 8 5 4 4 4 3 3 3 3 3 3 4 4 5 4 4 5 5 5 5 5 5 6 6 7 7 8 9 9 9 10 14 18 18 17 13 13 16 14 11 10 12 13 13 16 18 21 24 26 26 25 26 28 30 32 32 27 23 21 21 20 20 19 17 16 15 13 12 13 14 15 16 17 19 19 19 18
Wind_Speed
16 17 15 14 13 12 12 12 12 13 14 13 13 12 11 10 11 10 10 10 9 9 9 10 10 10 10 10 10 11 10 10 9 9 9 9 9 9 9 9 9 9 9 9 8 8 8 7 7 7 6 6 5 5 4 4 3 3 1 1 1 1 1 1 2 1 1 2 3 3 2 2 1 2 2 3 4 5 7 8 10 11 12 12 11
14 14 13 12 11 12 12 12 13 13 13 13 11 11 10 10 10 10 9 9 8 9 9 9 10 10 10 10 10 10 10 10 10 10 10 10 10 9 9 9 9 9 9 9 8 8 7 7 7 7 6 6 5 5 4 4 3 2 1 0 1 1 1 1 1 1 1 3 4 4 3 2 2 1 2 3 4 5 6 8 9 11 12 11 10
13 11 11 10 11 11 12 13 13 13 12 11 10 10 10 9 9 9 8 7 8 8 8 9 9 10 10 10 10 10 10 10 10 10 10 10 10 10 10 10 10 10 9 9 8 8 7 7 6 6 6 5 5 5 4 3 3 2 1 0 1 1 2 2 1 1 2 4 5 4 3 3 2 2 2 2 3 4 6 8 9 11 11 11 9
11 9 9 9 10 11 12 13 12 12 11 10 10 9 9 8 8 7 6 7 7 7 8 9 9 10 10 10 10 10 10 11 10 10 10 10 10 10 10 10 10 10 9 9 8 8 7 6 6 6 5 4 4 4 4 3 3 2 1 1 1 1 2 2 2 2 3 4 5 4 4 3 3 2 2 2 3 4 6 8 9 10 11 10 8
10 9 9 9 9 10 11 12 11 10 9 9 9 8 8 8 7 6 6 6 7 7 8 9 10 10 10 10 10 10 11 11 11 11 11 11 10 10 11 10 10 10 9 8 8 7 7 6 6 5 4 4 4 3 3 3 3 2 2 2 2 2 2 2 2 3 4 5 5 4 4 4 4 3 3 3 4 5 7 8 9 10 10 9 8
10 10 10 9 9 10 10 10 9 8 8 8 8 8 8 7 6 5 6 6 7 8 8 9 9 10 10 10 10 11 11 11 11 11 11 11 10 10 10 10 10 9 9 8 7 6 6 5 5 4 3 3 3 3 3 3 2 2 2 3 3 2 2 2 2 3 4 5 5 4 4 4 4 4 4 4 5 7 8 8 9 10 10 9 8
10 10 10 10 9 9 9 8 8 8 7 7 8 8 7 7 6 5 6 6 7 7 8 9 9 10 10 10 11 11 11 11 11 11 11 11 11 11 10 10 10 9 9 8 7 6 6 5 4 3 3 2 2 2 2 2 2 2 3 3 3 3 3 3 3 4 4 5 4 5 5 5 5 6 6 6 7 8 9 9 9 9 10 9 7
9 10 10 10 9 8 8 7 7 7 7 7 8 8 7 7 6 5 6 6 7 7 8 9 9 10 10 11 11 12 12 11 11 11 11 11 11 11 10 10 10 10 9 8 7 7 6 5 5 4 4 3 3 2 2 2 1 1 2 2 3 3 3 3 3 4 4 4 4 5 5 5 6 6 7 7 8 8 9 8 9 9 9 9 7
8 9 9 9 8 8 7 7 7 7 7 7 7 8 8 7 6 6 6 6 7 8 8 9 10 10 11 11 12 12 12 11 11 11 11 10 11 11 11 11 10 10 10 9 8 7 6 6 6 5 5 5 4 3 2 2 1 1 1 2 3 4 4 3 2 3 3 4 4 6 6 6 6 7 7 8 8 8 8 8 8 8 8 7 6
8 8 8 8 8 7 7 6 7 7 7 7 8 8 8 7 6 6 6 7 7 8 9 10 10 10 11 11 11 11 11 11 11 11 11 11 11 11 11 11 11 10 10 9 8 7 6 6 6 6 6 6 5 5 4 2 1 1 1 2 3 4 4 3 2 2 3 4 4 6 6 6 7 7 7 8 8 8 8 8 8 7 7 6 4
8 8 7 7 7 7 6 7 7 7 7 7 8 8 8 8 7 6 7 7 8 9 9 10 11 11 11 11 11 11 11 11 11 11 11 11 11 11 11 11 10 10 9 8 8 7 6 6 7 7 7 8 7 7 5 4 3 2 2 2 3 4 4 4 2 2 3 3 3 5 6 6 6 7 7 8 8 8 7 7 7 7 6 5 4
8 7 7 6 5 6 6 7 7 7 7 7 8 8 8 8 7 7 7 8 8 9 10 11 11 11 11 11 10 10 10 10 11 11 11 11 11 11 11 10 10 10 10 9 8 7 7 7 8 8 9 9 9 8 7 6 6 5 3 3 4 5 5 5 3 2 3 4 3 4 5 5 5 6 6 7 7 7 7 6 6 5 5 4 3
7 7 6 6 5 6 6 7 7 7 7 7 7 8 9 8 7 7 7 9 9 10 11 12 12 12 11 11 10 10 10 10 11 11 11 11 10 11 11 11 11 11 11 10 10 10 10 9 9 9 10 10 9 9 8 8 8 7 5 4 4 5 5 5 5 4 4 4 3 3 3 4 4 5 5 5 6 5 5 5 4 4 3 2 2
7 7 6 6 6 6 6 7 7 7 7 7 7 8 9 8 8 8 8 10 10 11 12 12 12 12 12 11 10 10 10 10 10 11 11 11 11 12 13 13 14 14 13 13 13 13 13 12 11 11 11 11 11 10 10 9 8 8 7 6 5 4 3 3 4 4 4 4 3 3 3 2 3 3 3 3 4 4 4 4 3 3 2 1 1
8 7 6 6 6 6 6 7 7 7 7 7 8 8 9 9 9 9 10 11 11 11 12 12 12 12 12 11 10 10 11 11 11 11 11 12 13 14 15 15 15 16 16 16 16 16 15 14 13 13 13 12 12 12 11 10 9 8 8 6 5 5 4 3 2 3 4 5 4 3 3 3 2 3 2 3 3 3 3 3 3 3 2 2 2
7 7 6 6 6 7 7 6 6 6 7 7 7 8 9 9 9 10 11 11 11 12 12 12 12 12 11 11 11 11 12 12 13 12 12 14 15 15 15 16 17 17 18 18 17 17 16 15 15 14 14 14 14 14 13 12 11 10 9 8 7 6 6 5 3 2 3 4 4 3 4 4 3 2 2 2 2 2 3 3 3 3 2 2 3
7 7 6 6 6 6 6 6 6 6 6 7 7 8 9 10 10 10 11 11 12 13 13 13 13 13 12 12 13 13 14 15 14 14 14 15 16 16 16 17 17 18 18 18 18 17 17 16 16 15 15 15 14 14 13 13 13 12 11 10 9 8 8 7 6 4 3 3 2 1 3 4 4 4 2 1 2 3 3 3 3 3 3 3 3
7 7 6 6 6 6 6 6 6 6 7 7 8 9 10 10 10 11 11 11 13 14 14 14 14 13 13 14 15 16 17 17 16 16 16 16 17 17 17 17 17 18 17 17 17 16 16 16 15 15 14 14 13 13 13 12 12 12 12 12 12 12 11 9 7 6 4 2 2 2 1 2 3 4 3 1 1 2 3 3 3 4 4 4 4
8 8 7 7 6 6 5 5 5 6 7 7 8 9 10 11 11 10 10 11 13 14 14 14 14 14 15 17 18 18 18 18 17 17 16 16 16 17 17 17 17 17 17 16 15 15 15 15 14 14 14 13 12 12 11 11 11 11 11 11 12 13 13 12 10 8 6 4 2 2 1 1 1 1 2 2 2 0 2 3 3 4 4 5 5
8 8 7 7 6 6 5 5 5 6 7 7 8 10 10 11 10 10 10 11 13 14 15 15 16 17 18 19 20 20 19 18 18 17 17 16 16 16 16 16 16 16 16 15 14 14 14 14 14 14 13 13 12 12 11 10 11 11 10 10 11 11 12 13 13 11 9 7 5 4 2 1 1 1 1 2 2 2 1 1 2 3 4 5 6
8 8 8 8 6 5 6 6 6 6 7 7 9 10 11 11 11 10 10 11 13 14 16 16 17 18 20 21 21 21 20 18 18 17 16 16 15 15 15 15 15 15 14 14 14 14 14 14 14 14 13 12 13 12 11 11 11 11 10 9 9 10 12 13 13 13 11 10 9 7 5 3 2 1 2 1 1 2 2 2 1 2 3 4 5
8 8 8 8 7 6 6 6 6 6 7 8 9 10 11 11 11 11 11 13 14 15 17 17 18 18 19 20 20 20 19 17 17 16 15 15 15 15 15 15 15 14 14 14 14 14 14 14 14 13 12 12 12 12 12 12 11 11 10 8 9 11 12 11 12 12 12 12 11 10 8 6 5 3 3 2 1 1 2 2 2 2 2 2 3
9 8 8 8 7 7 7 7 7 7 7 8 9 10 11 11 12 12 13 14 15 16 17 17 17 16 16 17 17 17 17 16 15 15 15 14 14 14 14 14 14 14 14 13 13 14 13 13 12 12 12 11 11 12 12 12 11 11 10 9 10 11 11 10 11 11 12 12 12 12 11 10 8 5 4 3 2 2 2 2 2 2 2 2 2
9 8 8 8 8 7 8 7 7 7 7 8 9 10 11 12 13 13 14 15 15 16 17 17 16 15 15 15 15 15 16 15 14 14 14 13 13 13 13 13 13 13 13 13 12 12 12 11 11 12 11 11 10 11 11 11 12 11 10 11 11 11 11 10 10 11 11 12 12 12 13 12 10 8 6 5 4 3 2 2 2 2 2 2 3
9 8 7 8 9 9 8 8 8 7 7 8 9 11 12 13 13 14 15 15 15 15 16 16 16 15 14 15 15 15 15 14 13 13 12 12 12 12 11 12 12 12 12 11 11 11 11 11 11 11 11 10 10 11 12 11 11 12 12 12 12 11 11 10 10 10 10 10 11 11 12 12 11 10 8 7 6 5 3 2 1 1 2 3 3
10 9 8 8 9 9 9 9 8 8 7 8 9 12 13 14 14 14 14 14 14 14 14 15 15 14 14 13 13 13 12 11 11 11 11 10 11 10 10 11 11 11 9 9 10 10 10 11 11 11 11 11 11 12 13 12 11 12 12 12 12 12 11 10 10 10 10 10 9 10 11 11 11 10 9 8 8 6 5 4 3 1 1 2 3
10 9 8 8 9 10 10 9 9 8 8 9 10 13 14 14 14 14 14 13 13 12 12 13 13 13 12 12 11 11 10 10 10 10 9 9 9 9 9 9 10 9 8 8 9 10 9 10 11 11 12 13 12 12 11 11 11 11 11 11 11 11 11 10 10 10 9 9 9 9 9 10 10 9 9 8 8 8 7 6 4 3 2 2 3
9 9 8 8 9 11 11 10 10 9 9 10 11 14 14 14 14 13 13 13 12 11 10 11 12 12 11 10 9 10 10 9 9 9 8 8 9 8 8 9 9 9 8 9 10 10 9 11 12 12 13 13 12 11 11 11 11 10 10 10 9 10 10 9 9 9 9 9 9 8 9 9 9 9 8 8 8 8 7 6 5 4 3 3 2
9 10 8 8 10 11 12 11 10 10 10 11 12 14 15 14 13 13 13 13 12 11 9 9 10 10 10 9 9 9 9 8 8 8 7 7 8 8 8 8 9 9 9 11 11 10 10 12 12 12 12 12 11 11 11 10 10 10 10 8 7 8 9 9 9 9 9 10 9 8 8 8 8 8 8 8 8 7 7 6 5 5 4 3 2
9 10 9 8 10 12 12 12 11 10 11 12 14 15 15 14 13 13 12 12 11 10 9 8 8 9 9 9 8 8 8 7 6 7 7 6 8 8 8 8 9 9 10 11 10 10 10 12 12 12 12 12 11 11 10 10 9 9 9 7 7 7 8 9 9 9 9 10 9 8 8 7 7 7 7 8 8 7 6 6 5 5 4 3 3
9 10 9 8 10 12 13 12 12 11 11 13 14 15 15 14 13 13 12 11 10 9 8 8 7 8 9 8 7 7 7 6 5 7 8 7 8 9 9 9 9 10 10 10 10 10 11 12 12 12 12 11 11 10 10 9 9 9 8 7 6 6 7 8 9 9 9 10 10 9 8 8 7 7 6 7 8 7 6 6 6 6 6 6 6
9 10 10 9 10 12 13 12 12 12 12 13 15 15 15 15 14 13 11 10 10 9 8 7 7 7 8 7 7 6 6 6 5 7 8 8 8 9 9 9 9 10 10 10 11 11 11 11 12 11 11 11 11 10 10 9 9 9 8 7 6 6 6 7 8 8 8 9 9 8 8 9 8 7 6 6 7 7 6 6 6 7 7 8 8
10 10 10 10 10 13 13 13 13 13 13 14 15 16 16 15 14 12 11 10 9 8 7 7 7 7 7 6 6 5 5 6 6 6 8 8 8 8 8 8 9 10 10 11 11 11 10 10 10 11 11 11 11 10 10 10 9 8 7 6 6 5 5 6 7 7 7 7 7 7 8 8 8 8 7 6 6 6 6 6 6 7 7 7 8
10 10 10 10 11 14 14 13 14 14 14 15 16 16 16 15 13 12 11 9 8 7 7 6 6 6 6 6 6 5 5 5 6 6 7 7 7 7 7 8 9 9 10 10 10 10 10 9 9 10 10 11 10 10 10 9 9 8 6 5 5 5 5 5 6 6 5 5 5 5 7 7 7 8 8 7 6 6 6 6 7 7 7 7 7
11 11 11 11 12 15 15 15 16 15 15 16 17 16 16 14 13 12 10 9 8 7 7 6 6 6 6 6 6 5 5 5 6 6 7 7 7 7 8 8 9 9 10 10 10 10 10 9 9 9 10 10 10 9 9 8 8 7 6 5 4 3 3 4 4 4 4 3 3 3 5 6 6 7 8 8 7 6 6 7 7 8 8 8 7
13 12 12 11 13 16 16 16 17 17 17 17 17 16 15 14 12 11 10 9 8 7 7 6 7 7 7 6 6 5 5 5 5 6 7 7 6 7 7 8 9 9 9 10 10 11 9 9 9 9 9 9 8 8 7 7 6 6 5 5 4 3 2 2 2 2 2 3 2 2 3 4 4 5 6 7 6 6 7 7 7 8 8 9 8
15 14 13 13 14 16 16 17 18 18 18 17 17 16 15 14 12 11 10 9 9 8 7 7 7 7 7 7 6 6 5 5 6 6 7 7 7 7 7 7 8 9 10 10 11 10 9 8 8 8 8 7 7 7 6 6 6 5 5 4 4 3 2 2 2 2 2 2 1 1 2 2 2 3 4 4 5 5 6 6 6 7 8 9 9
17 16 15 14 15 17 17 18 19 18 18 17 17 16 14 13 12 11 10 9 9 8 8 8 8 8 8 7 7 6 6 5 6 6 7 8 7 7 7 7 8 10 11 11 11 10 9 8 8 8 8 6 6 6 6 7 7 6 5 4 4 3 4 4 3 2 2 1 1 1 1 1 1 2 2 3 4 4 5 5 6 6 7 8 8
18 17 16 15 16 17 17 18 19 18 17 17 16 15 14 12 12 11 10 10 9 9 9 9 9 9 8 8 7 7 6 6 6 6 8 8 7 8 7 7 8 10 11 11 11 10 9 8 7 8 8 8 8 8 9 9 9 8 6 5 5 5 5 5 4 4 3 2 2 2 2 1 1 1 2 3 3 4 5 5 6 6 7 7 8
20 18 17 16 17 18 17 18 19 18 17 17 16 15 14 13 12 12 11 11 10 10 10 10 10 9 9 8 7 7 6 6 6 6 7 8 8 8 7 7 7 8 9 11 11 10 8 7 7 8 9 10 10 11 12 12 12 11 9 7 6 7 6 6 6 6 5 4 3 3 3 3 3 3 3 3 3 4 5 5 6 6 7 8 8
20 19 18 18 19 20 19 19 19 19 18 17 16 16 15 15 14 13 12 11 11 10 11 11 10 10 9 8 7 7 7 6 6 6 7 8 8 7 7 6 6 7 9 11 11 10 8 7 7 9 10 11 12 12 13 13 13 12 11 9 8 8 9 8 8 7 6 6 4 4 4 5 5 4 4 4 4 4 4 5 6 6 6 7 8
21 20 20 19 21 22 21 21 20 19 18 18 17 17 16 15 14 13 12 11 11 10 10 10 10 10 9 8 8 7 7 6 5 5 6 7 7 7 7 6 6 8 11 12 11 10 8 7 8 9 10 11 12 12 12 12 13 13 12 11 11 11 10 10 10 9 8 8 7 6 5 5 6 5 5 4 4 4 4 4 5 6 6 6 7
22 22 21 20 21 22 21 22 21 20 19 19 18 17 16 15 14 12 12 11 11 10 10 11 11 10 9 9 9 8 7 6 5 5 6 7 7 7 7 7 7 9 11 12 11 10 8 7 8 9 9 10 11 10 11 11 11 12 12 11 11 11 11 11 11 11 10 9 9 8 6 6 6 6 6 6 5 5 4 5 4 5 6 6 7
22 22 21 20 22 23 22 22 22 21 20 19 18 17 16 15 13 12 12 12 11 11 11 11 12 12 11 10 9 8 7 6 5 5 5 6 7 6 6 6 7 8 9 10 10 8 7 6 7 7 8 9 10 10 9 9 10 11 10 10 10 10 10 11 11 11 11 11 10 10 9 8 7 7 6 6 6 5 5 6 6 6 6 7 8
22 22 22 21 22 24 24 23 23 23 22 20 19 17 16 15 14 13 13 12 13 13 13 13 13 13 12 10 9 8 7 6 5 4 4 5 6 6 5 5 5 6 7 9 9 7 6 6 7 7 7 8 8 9 9 8 9 10 9 9 10 9 9 9 9 10 11 11 11 11 11 11 10 9 8 6 6 6 6 6 7 7 8 8 9
22 23 23 22 23 25 25 24 24 24 23 21 20 18 16 16 15 15 15 15 15 15 15 14 13 12 11 10 9 8 7 6 5 4 4 4 5 6 5 5 5 5 6 7 7 6 6 7 6 6 6 6 7 8 8 7 7 7 8 9 9 9 9 9 8 8 9 9 9 9 10 10 10 9 8 7 7 7 7 7 8 8 8 9 10
22 23 24 22 22 23 24 24 24 24 23 21 19 18 17 17 17 17 18 17 17 15 14 13 12 11 11 11 10 9 8 7 6 5 4 4 4 5 5 4 4 5 5 6 6 7 7 6 6 5 5 6 7 8 8 7 6 6 6 7 7 7 8 8 8 8 8 8 8 8 8 8 8 8 7 7 7 7 7 8 8 8 9 9 10
22 22 23 22 22 23 24 24 24 23 22 21 20 19 19 19 19 19 19 18 16 14 13 12 12 12 12 12 11 10 9 8 7 5 4 3 3 4 4 4 4 4 4 5 6 7 6 6 6 5 5 6 7 8 8 7 7 7 7 7 7 6 7 7 7 8 8 8 8 8 8 8 7 7 6 6 6 6 7 7 7 8 9 10 10
19 20 21 22 23 23 23 23 23 23 22 21 20 20 20 21 21 20 19 17 16 14 13 13 14 14 13 13 12 11 10 9 8 6 5 3 2 3 4 5 5 5 4 4 5 6 6 6 6 6 5 6 7 7 7 7 8 8 8 8 8 8 8 8 8 8 8 8 9 8 8 7 7 6 5 6 6 6 6 7 8 8 9 9 9
18 19 20 21 23 23 23 22 22 22 21 21 21 21 21 21 21 20 19 17 16 14 14 14 14 14 14 13 12 10 9 8 8 7 5 4 1 1 3 4 5 6 5 5 4 5 5 5 5 6 5 5 5 6 6 7 7 8 8 8 9 9 9 9 9 8 9 9 10 9 9 8 7 7 6 5 5 6 6 7 8 9 9 8 8
17 17 18 20 21 22 22 22 22 22 21 21 21 21 21 21 21 20 19 17 16 15 14 14 14 13 12 12 10 9 8 8 8 7 6 4 2 0 2 4 5 6 7 6 5 5 5 5 5 5 4 4 3 4 5 5 6 7 7 8 8 9 10 10 10 10 10 11 11 11 10 9 9 8 8 7 6 6 7 8 8 8 7 7 6
Wind_Direction
116 120 120 118 112 110 117 120 126 129 130 129 129 133 138 140 137 133 131 132 132 133 132 132 130 127 127 130 131 129 127 123 121 120 118 117 117 118 118 115 106 96 94 93 95 97 99 102 103 103 102 101 99 98 95 93 93 89 83 60 29 7 7 6 5 6 28 40 38 51 80 105 131 169 187 190 194 194 194 192 187 185 185 185 189
115 118 116 115 113 114 116 121 125 126 126 126 131 136 138 136 131 128 128 131 133 133 131 130 128 129 133 132 131 129 126 123 122 120 119 119 118 118 117 114 106 99 97 98 102 108 112 113 111 109 107 107 109 108 104 106 107 112 129 135 348 335 321 327 351 17 44 41 36 50 78 96 109 139 165 177 185 186 185 182 180 179 179 182 185
115 113 114 117 115 114 116 121 123 121 123 128 133 133 134 130 124 122 127 133 132 130 127 128 130 134 133 131 130 128 125 123 122 121 120 118 118 119 117 114 109 107 106 108 112 117 120 121 119 115 112 115 119 117 114 118 121 135 155 190 346 331 308 312 350 50 59 49 42 49 66 80 85 95 127 155 168 171 171 169 172 170 171 176 176
116 112 116 118 114 114 118 121 119 120 125 128 129 128 128 122 117 122 130 129 126 125 126 131 134 134 132 131 131 128 125 124 123 120 116 114 116 118 117 115 114 115 114 114 114 115 118 121 122 121 123 128 128 122 120 122 128 138 139 113 54 11 337 339 16 66 75 61 50 54 63 71 80 86 102 130 146 151 156 160 163 163 164 168 165
117 117 117 114 112 116 120 118 115 119 121 121 124 125 121 115 117 125 127 124 126 129 132 135 134 134 133 134 131 127 126 124 121 116 112 110 113 116 117 117 118 119 118 116 113 114 116 119 122 127 136 142 138 131 129 130 133 128 112 84 66 50 30 19 50 82 88 71 57 60 69 72 80 88 96 116 131 137 143 150 154 156 158 159 159
118 119 120 114 110 116 116 113 112 114 113 120 126 123 117 116 121 125 127 130 132 133 135 136 136 136 135 135 131 128 125 122 117 112 110 109 110 111 112 112 113 112 109 107 107 109 110 113 115 123 132 139 136 133 139 135 131 113 93 76 70 65 56 60 81 102 97 69 62 75 83 88 89 96 104 115 123 129 134 140 149 153 153 154 154
119 121 123 118 115 117 115 114 112 111 117 129 127 120 118 118 122 126 130 130 129 131 134 136 137 138 139 137 133 129 124 119 115 112 110 109 108 107 106 104 103 101 98 96 95 96 96 97 96 98 98 100 109 118 128 128 126 103 89 76 73 70 66 70 82 103 93 64 73 86 89 100 101 104 110 116 119 122 128 136 146 149 148 149 148
119 123 124 119 119 120 116 114 113 119 128 131 124 119 118 118 120 122 123 123 127 131 135 138 140 142 141 138 133 128 123 120 116 112 108 106 105 103 101 98 96 93 90 88 86 84 82 81 77 71 65 61 60 75 96 102 108 101 95 81 76 77 78 82 90 112 100 77 93 95 93 104 104 107 111 114 120 122 125 130 140 146 146 145 147
121 126 127 121 120 121 116 116 119 124 128 127 122 118 117 116 116 117 120 124 129 133 137 140 143 144 141 137 133 129 125 122 118 112 107 104 101 98 94 92 89 86 83 81 79 76 73 71 68 61 54 51 49 55 67 81 86 91 103 82 79 82 84 83 89 107 104 100 117 111 107 117 112 108 111 115 122 123 122 125 132 143 147 149 150
122 126 126 121 121 122 122 126 124 123 126 124 119 117 117 115 114 118 124 127 132 135 139 141 141 140 138 135 133 130 125 121 116 111 107 104 99 94 90 88 85 83 80 78 78 77 75 74 71 63 54 48 50 54 62 73 78 78 55 68 74 81 86 83 76 85 98 111 132 126 120 127 122 116 117 119 121 119 119 123 127 137 144 148 148
123 126 122 118 119 122 129 131 123 121 125 122 119 119 117 113 114 121 125 129 133 134 137 136 136 135 134 133 131 126 121 116 111 107 105 102 99 96 93 91 88 86 83 82 82 83 83 80 74 64 54 49 51 56 63 70 72 71 52 54 66 75 77 73 66 77 103 114 131 131 129 128 128 126 124 123 121 118 119 122 124 131 137 142 143
125 124 119 117 120 126 134 129 121 123 125 121 120 119 114 110 114 119 126 130 131 131 132 131 130 131 130 128 124 118 114 109 106 103 102 100 100 100 98 94 90 86 82 80 80 81 80 76 72 64 57 52 52 57 62 67 69 70 61 52 57 66 69 69 65 66 95 106 116 128 127 127 135 137 133 129 124 120 121 123 127 133 139 142 144
128 123 121 123 130 135 136 127 121 126 126 122 121 117 111 109 114 119 125 127 126 128 127 125 124 124 123 121 118 114 111 108 107 105 101 99 99 99 97 94 89 85 81 80 81 81 80 77 75 71 65 60 58 60 63 66 67 70 67 58 55 61 68 74 73 66 75 92 106 116 120 132 148 146 143 139 131 129 131 132 141 151 155 155 157
131 129 128 131 138 137 130 125 126 130 125 123 120 113 110 110 113 118 122 123 125 126 123 120 120 119 118 117 116 114 113 112 110 107 103 101 98 96 95 94 92 89 87 86 86 85 85 83 80 77 73 69 66 65 65 65 65 66 64 59 54 52 57 80 96 91 81 85 100 113 121 139 152 153 156 157 144 144 152 155 166 179 183 197 229
136 136 134 135 138 131 128 129 130 130 125 123 118 111 109 110 114 118 119 122 126 124 119 118 118 117 116 117 117 117 115 114 111 106 103 99 96 95 96 97 97 95 92 90 88 87 87 86 84 81 78 75 72 70 69 66 63 61 58 55 47 36 30 40 107 129 111 92 92 102 101 104 130 158 172 180 167 161 177 187 189 199 213 235 257
142 140 135 136 138 134 132 133 130 129 126 122 117 112 111 112 116 118 116 120 123 120 117 118 118 118 119 120 120 118 114 111 107 103 99 97 96 98 100 101 99 96 93 90 88 86 86 85 84 82 80 77 74 73 72 69 65 62 59 56 49 38 31 28 40 109 132 102 81 75 74 76 89 121 173 198 199 198 205 212 217 223 233 250 266
147 145 140 140 140 138 135 132 131 128 126 121 116 114 113 116 118 117 115 118 118 117 117 118 119 120 121 122 120 117 113 110 107 104 102 101 101 103 102 101 98 95 92 90 88 86 84 83 81 79 77 74 73 72 71 69 67 64 63 62 60 57 49 42 45 58 100 120 114 81 66 65 67 75 96 185 212 221 223 227 232 238 245 251 262
156 152 146 144 140 138 135 131 132 129 127 123 119 118 117 119 119 117 117 118 115 115 117 118 118 120 121 120 117 115 113 111 110 109 107 106 105 104 102 100 97 94 91 89 87 85 83 81 79 76 74 72 70 68 68 68 67 64 62 63 64 63 61 58 57 58 74 112 163 182 112 70 61 63 64 63 208 227 235 242 245 246 252 259 267
162 158 149 144 140 140 136 131 134 133 130 127 124 122 120 120 121 121 121 119 115 114 116 116 116 119 120 119 116 114 113 113 113 111 109 107 104 102 100 98 95 91 89 86 83 81 79 77 75 73 71 70 69 66 65 66 66 65 60 59 62 65 65 66 65 68 80 92 116 147 167 180 117 80 61 45 35 337 256 257 260 260 263 269 276
166 160 150 144 141 141 139 131 134 134 131 132 129 125 122 121 122 123 123 120 115 114 115 114 117 120 120 118 116 114 114 114 112 110 107 104 101 98 96 93 90 87 84 82 80 77 75 73 70 68 66 66 66 66 65 63 62 63 59 55 59 65 67 67 68 70 75 80 82 87 97 117 135 120 93 57 36 31 6 301 279 280 281 282 285
167 164 155 147 143 143 140 134 136 137 136 136 132 128 124 122 124 125 124 119 115 114 115 117 120 122 120 116 115 114 112 112 109 107 104 101 98 94 91 87 84 82 79 78 76 74 72 72 70 65 61 59 60 61 62 62 60 59 57 53 54 60 63 63 65 69 69 69 70 71 70 63 62 71 88 93 66 52 39 21 349 315 306 302 300
169 166 162 151 143 143 142 140 140 139 140 140 134 129 127 125 126 127 125 119 116 117 119 121 124 124 120 116 114 113 111 110 107 104 100 96 92 89 86 83 81 79 77 75 74 72 70 70 68 64 59 55 55 55 56 59 59 59 57 55 54 56 61 64 64 66 66 64 63 65 65 61 59 58 72 88 104 100 73 41 25 8 356 343 324
172 169 166 156 147 145 145 146 143 142 143 140 134 130 127 128 128 128 125 121 120 123 124 125 126 125 121 116 115 114 110 108 103 99 94 91 86 84 83 82 80 77 74 71 69 69 67 65 64 63 61 56 53 53 54 56 57 56 55 55 55 55 57 62 64 65 65 63 61 62 62 61 60 58 66 80 88 104 105 76 46 23 10 7 355
174 172 171 162 153 149 149 151 146 144 145 140 134 132 130 130 131 129 126 125 127 130 130 129 128 125 120 116 117 115 110 106 101 96 92 89 84 80 79 79 78 73 68 65 63 63 63 61 58 59 61 59 56 57 58 57 57 52 50 54 55 57 57 58 61 63 64 63 61 61 62 62 63 62 66 76 82 90 102 94 70 38 12 359 355
175 173 175 170 161 154 155 155 149 147 145 140 133 133 135 134 133 131 129 130 133 135 134 132 129 125 119 115 115 113 108 105 101 97 92 87 83 78 74 72 70 69 66 63 62 59 60 57 54 57 59 58 53 54 56 54 55 51 48 50 51 54 54 54 58 59 63 65 65 64 64 66 67 68 71 78 84 88 91 90 72 30 356 346 341
181 175 172 174 168 159 159 157 152 150 146 140 134 136 138 136 136 134 133 136 138 140 137 134 129 123 118 115 114 110 106 104 98 93 89 82 81 78 72 69 67 67 64 64 64 57 57 56 51 55 59 57 49 47 51 49 50 51 48 45 46 50 49 49 54 57 59 63 66 69 71 71 70 72 73 77 85 89 89 90 85 61 354 337 332
187 182 174 173 173 165 162 160 155 153 149 142 139 140 140 139 139 137 137 139 142 141 139 135 128 121 118 114 110 106 105 103 98 95 89 79 78 75 70 70 67 64 58 55 57 52 54 53 45 48 54 54 48 45 48 49 48 50 49 45 43 49 52 48 51 57 61 63 64 69 74 76 75 76 75 75 81 85 85 87 90 90 70 14 343
194 188 180 176 175 171 166 163 161 159 152 146 144 144 144 142 141 140 141 142 142 142 139 132 124 119 117 113 108 106 106 104 99 95 89 83 83 77 69 66 61 58 52 46 47 45 42 41 36 39 44 42 43 42 42 45 49 51 50 45 41 47 54 51 50 53 59 63 63 64 69 75 79 80 79 75 74 77 78 80 81 80 76 56 19
201 194 187 181 177 174 171 166 166 164 156 149 147 147 146 144 142 144 145 145 144 143 140 130 120 116 114 112 111 108 106 106 104 97 95 92 86 78 67 61 56 52 47 43 43 41 32 30 30 34 35 30 31 35 36 38 45 52 51 46 41 44 53 55 54 53 55 59 60 61 64 70 76 77 78 77 75 76 78 77 72 70 71 69 46
206 199 193 187 183 178 173 170 170 167 159 152 149 149 149 145 144 148 149 148 145 144 141 130 119 113 113 114 111 108 105 108 109 101 95 82 73 67 58 55 53 48 44 40 41 38 28 28 28 29 30 26 25 28 31 30 35 46 48 45 42 41 51 57 56 54 57 58 58 58 59 62 68 72 72 75 77 76 78 76 69 64 62 59 43
213 206 198 192 190 180 173 173 174 168 160 155 151 151 149 146 148 152 153 151 146 148 147 135 124 118 116 117 114 109 105 105 101 94 85 70 64 61 56 50 44 46 44 35 37 34 28 29 27 23 24 24 23 24 27 28 31 37 35 33 34 33 44 57 58 53 55 59 58 57 57 56 58 63 66 71 74 70 69 70 67 61 53 46 38
218 213 204 197 193 182 176 178 176 169 162 157 154 151 148 148 152 155 155 153 151 152 152 142 135 129 121 121 119 112 105 101 92 86 82 71 64 58 55 50 40 43 41 32 36 36 31 30 25 19 19 20 21 22 24 27 34 36 27 21 22 24 34 53 62 54 52 57 58 57 56 55 54 56 59 65 70 67 62 59 57 56 53 49 43
221 219 211 205 195 183 180 181 178 171 164 159 155 152 150 152 155 157 158 157 155 154 153 149 145 136 128 126 123 117 109 104 94 84 80 74 67 57 51 50 43 40 39 35 35 37 32 28 22 17 16 18 18 18 21 24 32 36 28 16 13 19 23 44 62 59 51 52 54 55 54 54 55 56 56 57 63 63 59 54 50 50 53 51 43
221 220 213 211 197 184 182 183 180 174 167 160 156 153 151 154 157 159 160 160 157 158 158 154 151 142 136 136 130 125 118 105 93 80 74 65 58 51 44 49 49 43 41 37 36 38 31 22 21 17 16 17 13 14 18 19 24 31 31 21 12 16 16 29 59 68 64 55 50 48 51 54 52 56 56 53 53 53 52 51 48 48 51 49 38
218 218 210 211 200 185 184 185 182 176 168 162 157 154 153 155 160 162 163 164 163 167 166 160 156 151 146 143 138 132 122 105 91 78 69 54 44 39 36 42 45 43 44 40 37 37 28 17 18 18 18 16 9 9 13 13 15 22 27 22 16 20 15 18 44 70 77 70 53 38 45 50 45 52 58 55 50 47 45 44 45 46 47 46 39
211 214 208 209 201 188 186 185 182 177 170 165 160 157 156 158 162 165 168 170 173 175 172 167 162 158 154 149 143 134 121 104 87 75 67 58 45 37 36 40 40 39 40 40 38 33 25 18 17 20 24 17 7 5 3 3 4 10 16 15 19 19 9 21 29 49 74 77 72 45 39 43 36 41 55 60 57 51 48 42 40 40 40 41 36
207 207 204 206 199 190 188 185 183 179 171 166 164 161 159 162 165 168 173 176 181 181 177 174 169 163 159 153 146 135 123 105 87 74 67 62 51 43 40 39 40 40 34 32 36 31 22 22 21 24 33 25 8 4 355 345 345 348 352 3 13 10 8 26 15 9 50 62 71 73 61 56 37 28 38 51 55 51 49 43 36 33 34 34 30
205 203 201 202 197 191 188 185 183 180 174 170 167 165 164 167 170 172 177 182 185 186 184 182 175 168 162 155 148 138 128 109 91 79 68 59 50 49 45 37 39 41 34 27 29 29 22 25 31 32 39 38 23 15 2 350 349 345 339 356 12 14 21 23 5 355 15 18 347 21 81 85 45 22 19 25 30 32 34 31 25 26 28 26 24
202 200 198 198 194 191 189 184 183 180 176 173 169 168 168 170 175 175 179 184 187 188 188 186 178 170 164 158 151 141 132 115 96 81 69 58 47 48 47 40 39 39 36 28 25 28 26 27 40 46 50 51 41 32 24 18 15 9 4 16 22 22 26 23 15 8 1 354 333 328 346 353 338 354 7 8 11 7 9 10 6 8 12 13 15
198 198 196 195 191 189 188 185 185 182 179 178 174 173 173 173 177 178 179 182 184 186 186 184 178 172 168 162 154 144 134 120 103 85 73 63 50 47 45 43 41 40 38 31 28 33 35 33 46 56 58 58 51 43 38 35 34 32 31 35 32 29 29 26 25 19 3 353 347 342 338 329 329 342 354 355 357 357 354 351 350 354 359 2 5
196 196 195 195 190 187 186 185 187 186 183 183 181 180 179 178 179 179 178 179 180 181 181 179 175 173 171 163 156 148 137 126 111 91 77 66 55 50 51 50 45 41 38 32 31 37 43 50 57 60 61 60 55 49 45 44 45 46 46 46 43 37 33 27 25 20 11 4 7 13 347 332 337 341 344 342 343 351 344 339 340 346 355 357 356
194 194 195 195 192 189 186 185 189 190 188 190 189 186 184 182 182 178 175 176 177 176 176 175 174 174 171 165 161 154 144 135 121 97 76 65 57 53 55 54 44 38 36 32 31 34 44 60 66 64 64 62 58 52 50 50 52 53 52 51 49 46 40 33 30 26 21 14 13 22 5 348 351 345 339 336 336 341 339 337 335 340 350 350 350
194 194 194 194 193 192 189 186 190 193 192 194 194 190 187 186 185 180 176 177 177 177 176 174 174 176 175 171 168 160 151 141 127 103 81 70 61 52 53 50 40 37 35 31 32 36 43 58 65 65 65 63 59 54 51 50 54 56 54 52 52 52 50 46 43 40 36 28 21 26 25 10 8 1 352 347 344 344 340 340 340 344 350 350 354
194 195 195 194 195 195 193 190 192 197 197 198 197 194 190 188 186 183 181 181 180 182 181 177 178 179 179 176 170 161 152 145 132 113 94 82 72 60 55 52 44 37 32 28 32 40 53 66 66 63 60 58 58 54 51 48 50 53 51 49 49 48 51 52 51 50 49 45 38 38 43 40 32 27 20 8 1 357 348 344 350 357 357 355 0
194 197 198 196 196 197 197 194 195 200 201 201 199 195 192 190 188 186 185 186 187 188 186 183 182 180 178 173 167 161 155 152 144 128 108 91 80 69 63 62 55 45 33 26 29 38 57 72 70 62 56 53 51 44 40 40 44 47 46 46 45 42 44 47 48 51 52 51 50 47 47 48 45 40 34 25 16 9 0 355 357 3 5 3 6
194 199 201 200 198 198 199 199 200 203 204 203 200 196 193 192 191 190 190 192 192 191 187 183 181 177 174 172 170 170 168 165 161 149 127 104 89 77 67 65 62 54 40 28 28 36 45 56 62 60 55 45 37 25 19 23 34 40 42 44 43 39 38 39 39 45 48 48 50 50 48 48 47 42 36 30 27 21 15 11 7 6 8 8 10
196 201 205 204 202 201 201 202 205 207 207 205 202 199 196 195 195 196 197 198 196 191 185 181 179 178 179 182 181 181 180 175 171 164 143 116 97 83 70 64 64 60 46 29 28 38 41 42 46 50 46 31 24 19 15 17 25 29 33 36 35 32 31 32 32 35 40 40 40 43 44 43 43 38 28 24 28 26 21 19 15 8 6 8 8
197 203 207 208 207 205 204 205 207 209 210 208 205 203 200 198 200 201 202 202 199 193 187 185 185 186 189 189 188 188 184 179 172 164 149 124 96 82 68 53 50 52 45 30 26 35 40 36 31 30 30 25 26 28 25 25 29 29 29 29 25 22 21 20 22 25 25 27 28 31 34 33 34 33 21 13 15 20 19 15 12 7 4 2 359
197 204 210 211 211 210 209 209 210 211 213 212 209 207 205 203 203 205 206 205 201 194 190 191 191 192 194 191 192 193 184 177 174 165 155 144 105 72 58 41 32 28 24 21 21 26 34 35 30 25 23 29 37 40 34 30 30 30 28 28 24 21 20 18 17 16 14 14 13 12 15 16 15 19 21 13 7 11 14 6 360 357 355 353 352
195 203 210 214 214 215 215 215 216 215 215 216 214 213 211 208 207 208 209 207 202 196 195 198 198 197 198 195 194 193 184 177 177 173 169 165 152 57 45 38 25 15 10 4 4 15 23 26 29 30 28 34 46 45 37 32 28 27 25 23 22 21 22 24 23 21 20 17 10 3 0 355 350 346 348 354 354 349 347 345 343 342 342 345 348
194 201 209 216 217 218 220 221 222 220 218 217 217 217 217 214 212 211 211 208 203 201 203 205 204 202 202 200 195 190 185 183 184 182 178 174 176 296 14 25 18 10 4 354 348 359 9 11 19 33 38 37 47 39 30 32 27 25 23 20 21 21 24 27 27 28 28 26 21 15 11 3 355 346 337 336 338 331 326 329 333 335 336 340 340